Regional Weather Roundup
Issued by NWS

Home | Current Version | Previous Version | Text Only | Print | Product List | Glossary On
Versions: 1 2 3 4 5 6 7 8 9 10 11 12 13 14 15 16 17 18 19 20 21 22 23 24 25 26 27
000
ASUS42 KFFC 252003
RWRGA
WEATHER ROUNDUP FOR GEORGIA
NATIONAL WEATHER SERVICE PEACHTREE CITY GA
400 PM EDT WED MAY 25 2016

NOTE: "FAIR" INDICATES FEW OR NO CLOUDS BELOW 12,000 FEET WITH NO
SIGNIFICANT WEATHER AND/OR OBSTRUCTIONS TO VISIBILITY.

* = USE WITH CAUTION. THE STATIONS MARKED WITH AN ASTERISK MAY NOT
REPORT WEATHER SUCH AS PRECIPITATION, FOG, OR THUNDER AND ARE NOT
QUALITY CONTROLLED BY NWS.

THE REMARK "TC" DENOTES TEMPERATURE READING IN DEGREES CELSIUS.

GAZ001>058-252100-
NORTH GEORGIA

CITY           SKY/WX    TMP DP  RH WIND       PRES   REMARKS
ATLANTA        MOSUNNY   85  53  33 S9        30.20F
ATHENS         SUNNY     87  57  35 VRB6      30.20F
CHAMBLEE       SUNNY     87  54  32 S7        30.19F
PEACHTREE CITY MOSUNNY   88  54  31 VRB6G20   30.20F
ROME           MOSUNNY   88  54  31 S9        30.16F
WEST ATLANTA   SUNNY     85  52  32 S5        30.18F
GAINESVILLE    SUNNY     84  53  34 S7        30.22F
CARTERSVILLE   MOSUNNY   86  53  32 VRB7      30.18F


CITY           SKY/WX    TMP DP  RH WIND       PRES   REMARKS
DALTON*        MOSUNNY   84  55  37 S6        30.17F
LAWRENCEVILLE* MOSUNNY   82  55  39 SW12      30.21F
MARIETTA       MOSUNNY   85  54  33 VRB7      30.19F
KENNESAW*      MOSUNNY   84  54  34 S6        30.14F
CANTON*        SUNNY     86  34  15 SW7       30.21F
BLAIRSVILLE*     N/A    N/A N/A N/A MISG      30.24F
$$

GAZ059>098-102>109-252100-
CENTRAL GEORGIA

CITY           SKY/WX    TMP DP  RH WIND       PRES   REMARKS
AUGUSTA-BUSH   SUNNY     88  54  31 VRB3      30.18F
AUGUSTA-DANIEL SUNNY     87  53  31 VRB5      30.20F
COLUMBUS       MOSUNNY   86  55  34 SE8       30.18F
MACON          PTSUNNY   89  55  31 S8        30.19F
ROBINS AFB     SUNNY     88  60  38 VRB2      30.19F


CITY           SKY/WX    TMP DP  RH WIND       PRES   REMARKS
LAGRANGE*      SUNNY     90  61  37 S7        30.19F HX  90
SYLVANIA*      SUNNY     91  54  28 S3        30.21F
MILLEDGEVILLE* MOSUNNY   88  55  33 CALM      30.20F
$$

GAZ099>101-110>166-252100-
SOUTH GEORGIA

CITY           SKY/WX    TMP DP  RH WIND       PRES   REMARKS
SAVANNAH       PTSUNNY   85  60  42 SE12      30.20F
VALDOSTA       MOSUNNY   89  57  33 E8        30.18F
ALMA           MOSUNNY   87  56  34 S5        30.19F
ST SIMONS      SUNNY     82  65  56 SE10      30.22F
FT STEWART     MOSUNNY   87  63  44 E8        30.17F
ALBANY         MOSUNNY   90  55  30 S8        30.20F
HUNTER AFB     PTSUNNY   83  66  56 SE7       30.19F
MOODY AFB      MOSUNNY   88  55  32 E5        30.18F
BRUNSWICK      MOSUNNY   90  59  35 SE9       30.22F


CITY           SKY/WX    TMP DP  RH WIND       PRES   REMARKS
BAINBRIDGE*    CLOUDY    90  61  37 SE7       30.18F
MOULTRIE*      SUNNY     88  57  35 SE3       30.19F
VIDALIA*       SUNNY     88  54  31 SW5       30.21F
WAYCROSS*      MOSUNNY   87  57  36 SE7       30.19F
DOUGLAS*       PTSUNNY   90  52  27 SE7       30.20F
$$




USA.gov is the U.S. government's official web portal to all federal, state and local government web resources and services.